Flag for Hungary Weather past 2 weeks in Miskolc, Hungary

Now
52 °F

Clear.


Feels Like: 52 °F
Forecast: 47 / 76 °F
Wind: 1 mph from Southwest

Location: Miskolc

Current Time: Apr 27, 2015 at 1:19:37 AM

Latest Report: Apr 27, 2015 at 12:00 AM


Visibility: 16 mi

Pressure: 29.82 "Hg

Humidity: 76%

Dew point: 45 °F

Location of MiskolcLocation

Historic Weather in Miskolc — Graph

°F

Miskolc temperature yesterday

Maximum temperature yesterday: 71 °F (at 1:00 PM)
Minimum temperature yesterday: 46 °F (at 6:00 AM)
Average temperature yesterday: 60 °F

Past Weeks' High & Low Weather Summary

 TemperatureHumidityPressure
High81 °F (Apr 16, 2:00 PM)85% (Apr 18, 12:00 AM)30.33 "Hg (Apr 18, 12:00 AM)
Low31 °F (Apr 19, 6:00 AM)14% (Apr 16, 5:00 PM)29.74 "Hg (Apr 17, 6:00 PM)
Average56 °F49%30.04 "Hg
* Reported Midnight between Apr 11 and Apr 12 — Midnight between Apr 26 and Apr 27, Miskolc, Weather by CustomWeather, © 2015

Note: Actual official high and low records may vary slightly from our data, if they occured in-between our weather recording intervals... More about our weather records

Advertising

Miskolc weather history for previous 24 hours

 ConditionsComfort  
Time TempWeatherWind HumidityBarometerVisibility
12:00 AM
Mon, Apr 27
52 °FClear.1 mph76%29.82 "Hg16 mi
11:00 PM
Sun, Apr 26
54 °FClear.No wind73%29.83 "Hg19 mi
10:00 PM56 °FClear.1 mph68%29.82 "Hg19 mi
9:00 PM59 °FPassing clouds.1 mph65%29.81 "Hg19 mi
8:00 PM63 °FPassing clouds.1 mph57%29.80 "Hg22 mi
7:00 PM68 °FScattered clouds.1 mph43%29.79 "Hg22 mi
6:00 PM69 °FPartly sunny.2 mph42%29.80 "Hg22 mi
5:00 PM69 °FSprinkles. Overcast.2 mph42%29.80 "Hg19 mi
4:00 PM69 °FOvercast.2 mph42%29.82 "Hg22 mi
3:00 PM68 °FOvercast.3 mph41%29.84 "Hg22 mi
2:00 PM70 °FOvercast.3 mph40%29.85 "Hg22 mi
1:00 PM71 °FOvercast.3 mph42%29.85 "Hg22 mi
12:00 PM69 °FOvercast.5 mph40%29.86 "Hg22 mi
11:00 AM68 °FOvercast.2 mph43%29.87 "Hg22 mi
10:00 AM64 °FOvercast.2 mph54%29.88 "Hg22 mi
9:00 AM59 °FOvercast.1 mph63%29.90 "Hg19 mi
8:00 AM54 °FOvercast.1 mph70%29.90 "Hg19 mi
7:00 AM49 °FOvercast.No wind79%29.91 "Hg19 mi
6:00 AM46 °FOvercast.No wind80%29.90 "Hg19 mi
4:00 AM49 °FPassing clouds.No wind76%29.91 "Hg19 mi
3:00 AM51 °FPassing clouds.1 mph73%29.90 "Hg19 mi
2:00 AM52 °FPassing clouds.1 mph70%29.91 "Hg19 mi
1:00 AM53 °FPassing clouds.No wind69%29.93 "Hg19 mi
Weather by CustomWeather, © 2015

See weather overviewHow to use our weather pages